contact:dominique.lefevre@mio.osupytheas.fr, maurice.libes@osupytheas.fr, didier.mallarino@osupytheas.fr
Project:EMSO http://www.emso-fr.org/EMSO-France
Depth: 2436.0 m
Title:EMSO Ligure Ouest : Data MII capteur MICROCAT
DateTime_Computer,Latitude,Longitude,Temperature,Conductivity,Pressure,DateTime_Instrument
DateTime_Computer,Latitude,Longitude,degC,S m-1,dbar,DateTime_Instrument
2021-05-23T00:02:20Z,42.805,6.029,13.3042,4.60060,2470.45,2021-5-23T02:03:31Z
2021-05-23T00:05:23Z,42.805,6.029,13.3047,4.60072,2470.427,2021-5-23T02:06:34Z
2021-05-23T00:08:26Z,42.805,6.029,13.3054,4.60067,2470.45,2021-5-23T02:09:38Z
2021-05-23T00:11:29Z,42.805,6.029,13.3058,4.60057,2470.45,2021-5-23T02:12:41Z
2021-05-23T00:14:32Z,42.805,6.029,13.3013,4.60079,2470.437,2021-5-23T02:15:44Z
2021-05-23T00:17:35Z,42.805,6.029,13.3038,4.60049,2470.45,2021-5-23T02:18:47Z
2021-05-23T00:20:38Z,42.805,6.029,13.3042,4.60051,2470.46,2021-5-23T02:21:50Z
2021-05-23T00:23:42Z,42.805,6.029,13.3029,4.60057,2470.46,2021-5-23T02:24:53Z
2021-05-23T00:26:45Z,42.805,6.029,13.3041,4.60057,2470.413,2021-5-23T02:27:56Z
2021-05-23T00:29:48Z,42.805,6.029,13.3031,4.60041,2470.437,2021-5-23T02:30:59Z
2021-05-23T00:32:51Z,42.805,6.029,13.3026,4.60045,2470.46,2021-5-23T02:34:03Z
2021-05-23T00:35:54Z,42.805,6.029,13.3011,4.60062,2470.45,2021-5-23T02:37:06Z
2021-05-23T00:38:57Z,42.805,6.029,13.3021,4.60094,2470.437,2021-5-23T02:40:09Z
2021-05-23T00:42:00Z,42.805,6.029,13.3016,4.60076,2470.45,2021-5-23T02:43:12Z
2021-05-23T00:45:03Z,42.805,6.029,13.3026,4.60092,2470.474,2021-5-23T02:46:15Z
2021-05-23T00:48:07Z,42.805,6.029,13.3005,4.60102,2470.474,2021-5-23T02:49:18Z
2021-05-23T00:51:10Z,42.805,6.029,13.3006,4.60104,2470.474,2021-5-23T02:52:21Z
2021-05-23T00:54:13Z,42.805,6.029,13.3009,4.60092,2470.483,2021-5-23T02:55:24Z
2021-05-23T00:57:16Z,42.805,6.029,13.3013,4.60081,2470.474,2021-5-23T02:58:28Z
2021-05-23T01:00:19Z,42.805,6.029,13.3025,4.60052,2470.474,2021-5-23T03:01:31Z
2021-05-23T01:03:22Z,42.805,6.029,13.3014,4.60089,2470.507,2021-5-23T03:04:34Z
2021-05-23T01:06:25Z,42.805,6.029,13.3006,4.60082,2470.483,2021-5-23T03:07:37Z
2021-05-23T01:09:28Z,42.805,6.029,13.3022,4.60047,2470.45,2021-5-23T03:10:40Z
2021-05-23T01:12:32Z,42.805,6.029,13.3010,4.60058,2470.474,2021-5-23T03:13:43Z
2021-05-23T01:15:35Z,42.805,6.029,13.3020,4.60073,2470.46,2021-5-23T03:16:46Z
2021-05-23T01:18:38Z,42.805,6.029,13.3011,4.60093,2470.474,2021-5-23T03:19:49Z
2021-05-23T01:21:41Z,42.805,6.029,13.3012,4.60092,2470.437,2021-5-23T03:22:53Z
2021-05-23T01:24:44Z,42.805,6.029,13.3000,4.60074,2470.507,2021-5-23T03:25:56Z
2021-05-23T01:27:47Z,42.805,6.029,13.2996,4.60056,2470.497,2021-5-23T03:28:59Z
2021-05-23T01:30:50Z,42.805,6.029,13.3004,4.60067,2470.497,2021-5-23T03:32:02Z
2021-05-23T01:33:53Z,42.805,6.029,13.3005,4.60049,2470.474,2021-5-23T03:35:05Z
2021-05-23T01:36:57Z,42.805,6.029,13.3009,4.60074,2470.52,2021-5-23T03:38:08Z
2021-05-23T01:40:00Z,42.805,6.029,13.3019,4.60080,2470.483,2021-5-23T03:41:11Z
2021-05-23T01:43:03Z,42.805,6.029,13.3028,4.60046,2470.483,2021-5-23T03:44:14Z
2021-05-23T01:46:06Z,42.805,6.029,13.3004,4.60074,2470.507,2021-5-23T03:47:18Z
2021-05-23T01:49:09Z,42.805,6.029,13.3006,4.60067,2470.53,2021-5-23T03:50:21Z
2021-05-23T01:52:12Z,42.805,6.029,13.3006,4.60052,2470.53,2021-5-23T03:53:24Z
2021-05-23T01:55:15Z,42.805,6.029,13.3004,4.60076,2470.507,2021-5-23T03:56:27Z
2021-05-23T01:58:18Z,42.805,6.029,13.3005,4.60037,2470.483,2021-5-23T03:59:30Z
2021-05-23T02:01:22Z,42.805,6.029,13.3014,4.60049,2470.497,2021-5-23T04:02:33Z
2021-05-23T02:04:25Z,42.805,6.029,13.2996,4.60039,2470.507,2021-5-23T04:05:36Z
2021-05-23T02:07:28Z,42.805,6.029,13.3001,4.60052,2470.544,2021-5-23T04:08:39Z
2021-05-23T02:10:31Z,42.805,6.029,13.3015,4.60072,2470.52,2021-5-23T04:11:43Z
2021-05-23T02:13:34Z,42.805,6.029,13.2999,4.60033,2470.507,2021-5-23T04:14:46Z
2021-05-23T02:16:37Z,42.805,6.029,13.2996,4.60054,2470.53,2021-5-23T04:17:49Z
2021-05-23T02:19:40Z,42.805,6.029,13.3012,4.60074,2470.507,2021-5-23T04:20:52Z
2021-05-23T02:22:43Z,42.805,6.029,13.3001,4.60075,2470.567,2021-5-23T04:23:55Z
2021-05-23T02:25:47Z,42.805,6.029,13.3004,4.60064,2470.497,2021-5-23T04:26:58Z
2021-05-23T02:28:50Z,42.805,6.029,13.3004,4.60052,2470.53,2021-5-23T04:30:01Z
2021-05-23T02:31:53Z,42.805,6.029,13.2998,4.60067,2470.483,2021-5-23T04:33:04Z
2021-05-23T02:34:56Z,42.805,6.029,13.3014,4.60072,2470.567,2021-5-23T04:36:08Z
2021-05-23T02:37:59Z,42.805,6.029,13.3004,4.60059,2470.52,2021-5-23T04:39:11Z
2021-05-23T02:41:02Z,42.805,6.029,13.3019,4.60080,2470.52,2021-5-23T04:42:14Z
2021-05-23T02:44:05Z,42.805,6.029,13.3002,4.60059,2470.507,2021-5-23T04:45:17Z
2021-05-23T02:47:08Z,42.805,6.029,13.3004,4.60060,2470.544,2021-5-23T04:48:20Z
2021-05-23T02:50:12Z,42.805,6.029,13.2999,4.60072,2470.567,2021-5-23T04:51:23Z
2021-05-23T02:53:15Z,42.805,6.029,13.3004,4.60049,2470.53,2021-5-23T04:54:26Z
2021-05-23T02:56:18Z,42.805,6.029,13.3001,4.60057,2470.553,2021-5-23T04:57:29Z
2021-05-23T02:59:21Z,42.805,6.029,13.3006,4.60061,2470.591,2021-5-23T05:00:33Z
2021-05-23T03:02:24Z,42.805,6.029,13.3000,4.60061,2470.507,2021-5-23T05:03:36Z
2021-05-23T03:05:27Z,42.805,6.029,13.3001,4.60076,2470.507,2021-5-23T05:06:39Z
2021-05-23T03:08:30Z,42.805,6.029,13.2999,4.60070,2470.52,2021-5-23T05:09:42Z
2021-05-23T03:11:33Z,42.805,6.029,13.3004,4.60077,2470.553,2021-5-23T05:12:45Z
2021-05-23T03:14:37Z,42.805,6.029,13.3020,4.60070,2470.507,2021-5-23T05:15:48Z
2021-05-23T03:17:40Z,42.805,6.029,13.3009,4.60062,2470.577,2021-5-23T05:18:51Z
2021-05-23T03:20:43Z,42.805,6.029,13.3002,4.60046,2470.591,2021-5-23T05:21:54Z
2021-05-23T03:23:46Z,42.805,6.029,13.3010,4.60061,2470.553,2021-5-23T05:24:58Z
2021-05-23T03:26:49Z,42.805,6.029,13.3006,4.60059,2470.507,2021-5-23T05:28:01Z
2021-05-23T03:29:52Z,42.805,6.029,13.3009,4.60052,2470.553,2021-5-23T05:31:04Z
2021-05-23T03:32:55Z,42.805,6.029,13.2999,4.60035,2470.553,2021-5-23T05:34:07Z
2021-05-23T03:35:58Z,42.805,6.029,13.2999,4.60044,2470.567,2021-5-23T05:37:10Z
2021-05-23T03:39:01Z,42.805,6.029,13.3008,4.60062,2470.553,2021-5-23T05:40:13Z
2021-05-23T03:42:05Z,42.805,6.029,13.3012,4.60064,2470.544,2021-5-23T05:43:16Z
2021-05-23T03:45:08Z,42.805,6.029,13.2998,4.60035,2470.553,2021-5-23T05:46:19Z
2021-05-23T03:48:11Z,42.805,6.029,13.3006,4.60051,2470.567,2021-5-23T05:49:22Z
2021-05-23T03:51:14Z,42.805,6.029,13.2996,4.60039,2470.553,2021-5-23T05:52:26Z
2021-05-23T03:54:17Z,42.805,6.029,13.2997,4.60018,2470.53,2021-5-23T05:55:29Z
2021-05-23T03:57:20Z,42.805,6.029,13.3001,4.60052,2470.577,2021-5-23T05:58:32Z
2021-05-23T04:00:23Z,42.805,6.029,13.3006,4.60047,2470.567,2021-5-23T06:01:35Z
2021-05-23T04:03:26Z,42.805,6.029,13.3006,4.60039,2470.53,2021-5-23T06:04:38Z
2021-05-23T04:06:30Z,42.805,6.029,13.3012,4.60049,2470.553,2021-5-23T06:07:41Z
2021-05-23T04:09:33Z,42.805,6.029,13.2997,4.60049,2470.516,2021-5-23T06:10:44Z
2021-05-23T04:12:36Z,42.805,6.029,13.3009,4.60064,2470.567,2021-5-23T06:13:47Z
2021-05-23T04:15:39Z,42.805,6.029,13.2998,4.60027,2470.553,2021-5-23T06:16:51Z
2021-05-23T04:18:42Z,42.805,6.029,13.2996,4.60042,2470.591,2021-5-23T06:19:54Z
2021-05-23T04:21:45Z,42.805,6.029,13.3000,4.60048,2470.591,2021-5-23T06:22:57Z
2021-05-23T04:24:48Z,42.805,6.029,13.3008,4.60048,2470.567,2021-5-23T06:26:00Z
2021-05-23T04:27:51Z,42.805,6.029,13.3003,4.60049,2470.553,2021-5-23T06:29:03Z
2021-05-23T04:30:55Z,42.805,6.029,13.2999,4.60021,2470.553,2021-5-23T06:32:06Z
2021-05-23T04:33:58Z,42.805,6.029,13.3017,4.60057,2470.591,2021-5-23T06:35:09Z
2021-05-23T04:37:01Z,42.805,6.029,13.3011,4.60062,2470.567,2021-5-23T06:38:12Z
2021-05-23T04:40:04Z,42.805,6.029,13.2999,4.60059,2470.604,2021-5-23T06:41:16Z
2021-05-23T04:43:07Z,42.805,6.029,13.3004,4.60046,2470.553,2021-5-23T06:44:19Z
2021-05-23T04:46:10Z,42.805,6.029,13.3004,4.60046,2470.53,2021-5-23T06:47:22Z
2021-05-23T04:49:13Z,42.805,6.029,13.3000,4.60056,2470.553,2021-5-23T06:50:25Z
2021-05-23T04:52:16Z,42.805,6.029,13.2999,4.60034,2470.567,2021-5-23T06:53:28Z
2021-05-23T04:55:20Z,42.805,6.029,13.3003,4.60033,2470.577,2021-5-23T06:56:31Z
2021-05-23T04:58:23Z,42.805,6.029,13.3006,4.60047,2470.591,2021-5-23T06:59:34Z
2021-05-23T05:01:26Z,42.805,6.029,13.2999,4.60046,2470.553,2021-5-23T07:02:37Z
2021-05-23T05:04:29Z,42.805,6.029,13.2998,4.60049,2470.591,2021-5-23T07:05:41Z
2021-05-23T05:07:32Z,42.805,6.029,13.2988,4.60031,2470.577,2021-5-23T07:08:44Z
2021-05-23T05:10:35Z,42.805,6.029,13.3004,4.60042,2470.577,2021-5-23T07:11:47Z
2021-05-23T05:13:38Z,42.805,6.029,13.2996,4.60024,2470.553,2021-5-23T07:14:50Z
2021-05-23T05:16:41Z,42.805,6.029,13.2998,4.60036,2470.577,2021-5-23T07:17:53Z
2021-05-23T05:19:45Z,42.805,6.029,13.3011,4.60050,2470.553,2021-5-23T07:20:56Z
2021-05-23T05:22:48Z,42.805,6.029,13.3001,4.60051,2470.591,2021-5-23T07:23:59Z
2021-05-23T05:25:51Z,42.805,6.029,13.3011,4.60059,2470.53,2021-5-23T07:27:02Z
2021-05-23T05:28:54Z,42.805,6.029,13.3009,4.60049,2470.577,2021-5-23T07:30:06Z
2021-05-23T05:31:57Z,42.805,6.029,13.3000,4.60039,2470.591,2021-5-23T07:33:09Z
2021-05-23T05:35:00Z,42.805,6.029,13.2996,4.60024,2470.591,2021-5-23T07:36:12Z
2021-05-23T05:38:03Z,42.805,6.029,13.2995,4.60047,2470.614,2021-5-23T07:39:15Z
2021-05-23T05:41:06Z,42.805,6.029,13.3000,4.60030,2470.544,2021-5-23T07:42:18Z
2021-05-23T05:44:10Z,42.805,6.029,13.3006,4.60045,2470.553,2021-5-23T07:45:21Z
2021-05-23T05:47:13Z,42.805,6.029,13.2996,4.60014,2470.577,2021-5-23T07:48:24Z
2021-05-23T05:50:16Z,42.805,6.029,13.2996,4.60029,2470.53,2021-5-23T07:51:27Z
2021-05-23T05:53:19Z,42.805,6.029,13.2996,4.60038,2470.577,2021-5-23T07:54:31Z
2021-05-23T05:56:22Z,42.805,6.029,13.2994,4.60032,2470.53,2021-5-23T07:57:34Z
2021-05-23T05:59:25Z,42.805,6.029,13.2999,4.60036,2470.591,2021-5-23T08:00:37Z
2021-05-23T06:02:28Z,42.805,6.029,13.2993,4.60033,2470.53,2021-5-23T08:03:40Z
2021-05-23T06:05:31Z,42.805,6.029,13.3006,4.60047,2470.577,2021-5-23T08:06:43Z
2021-05-23T06:08:34Z,42.805,6.029,13.2998,4.60028,2470.544,2021-5-23T08:09:46Z
2021-05-23T06:11:38Z,42.805,6.029,13.3000,4.60070,2470.567,2021-5-23T08:12:49Z
2021-05-23T06:14:41Z,42.805,6.029,13.3000,4.60051,2470.516,2021-5-23T08:15:52Z
2021-05-23T06:17:44Z,42.805,6.029,13.3007,4.60032,2470.6,2021-5-23T08:18:56Z
2021-05-23T06:20:47Z,42.805,6.029,13.3001,4.60044,2470.544,2021-5-23T08:21:59Z
2021-05-23T06:23:50Z,42.805,6.029,13.2996,4.60031,2470.507,2021-5-23T08:25:02Z
2021-05-23T06:26:53Z,42.805,6.029,13.3000,4.60043,2470.567,2021-5-23T08:28:05Z
2021-05-23T06:29:56Z,42.805,6.029,13.3010,4.60035,2470.53,2021-5-23T08:31:08Z
2021-05-23T06:32:59Z,42.805,6.029,13.3005,4.60035,2470.544,2021-5-23T08:34:11Z
2021-05-23T06:36:03Z,42.805,6.029,13.3015,4.60041,2470.53,2021-5-23T08:37:14Z
2021-05-23T06:39:06Z,42.805,6.029,13.3003,4.60070,2470.52,2021-5-23T08:40:17Z
2021-05-23T06:42:09Z,42.805,6.029,13.2997,4.60039,2470.483,2021-5-23T08:43:21Z
2021-05-23T06:45:12Z,42.805,6.029,13.2996,4.60025,2470.52,2021-5-23T08:46:24Z
2021-05-23T06:48:15Z,42.805,6.029,13.2998,4.60017,2470.483,2021-5-23T08:49:27Z
2021-05-23T06:51:18Z,42.805,6.029,13.2987,4.60043,2470.52,2021-5-23T08:52:30Z
2021-05-23T06:54:21Z,42.805,6.029,13.2995,4.60029,2470.544,2021-5-23T08:55:33Z
2021-05-23T06:57:24Z,42.805,6.029,13.3010,4.60039,2470.507,2021-5-23T08:58:36Z
2021-05-23T07:00:28Z,42.805,6.029,13.2996,4.60061,2470.507,2021-5-23T09:01:39Z
2021-05-23T07:03:31Z,42.805,6.029,13.3005,4.60073,2470.544,2021-5-23T09:04:42Z
2021-05-23T07:06:34Z,42.805,6.029,13.3005,4.60028,2470.483,2021-5-23T09:07:45Z
2021-05-23T07:09:37Z,42.805,6.029,13.3005,4.60024,2470.52,2021-5-23T09:10:49Z
2021-05-23T07:12:40Z,42.805,6.029,13.2995,4.60035,2470.52,2021-5-23T09:13:52Z
2021-05-23T07:15:43Z,42.805,6.029,13.2999,4.60031,2470.52,2021-5-23T09:16:55Z
2021-05-23T07:18:46Z,42.805,6.029,13.2996,4.60019,2470.507,2021-5-23T09:19:58Z
2021-05-23T07:21:49Z,42.805,6.029,13.2997,4.60049,2470.544,2021-5-23T09:23:01Z
2021-05-23T07:24:53Z,42.805,6.029,13.2995,4.60057,2470.507,2021-5-23T09:26:04Z
2021-05-23T07:27:56Z,42.805,6.029,13.2996,4.60035,2470.53,2021-5-23T09:29:07Z
2021-05-23T07:30:59Z,42.805,6.029,13.2995,4.60069,2470.483,2021-5-23T09:32:10Z
2021-05-23T07:34:02Z,42.805,6.029,13.3032,4.60059,2470.52,2021-5-23T09:35:14Z
2021-05-23T07:37:05Z,42.805,6.029,13.2996,4.60039,2470.474,2021-5-23T09:38:17Z
2021-05-23T07:40:08Z,42.805,6.029,13.2990,4.60033,2470.497,2021-5-23T09:41:20Z
2021-05-23T07:43:11Z,42.805,6.029,13.3010,4.60054,2470.483,2021-5-23T09:44:23Z
2021-05-23T07:46:14Z,42.805,6.029,13.2994,4.60037,2470.53,2021-5-23T09:47:26Z
2021-05-23T07:49:18Z,42.805,6.029,13.3005,4.60043,2470.483,2021-5-23T09:50:29Z
2021-05-23T07:52:21Z,42.805,6.029,13.2994,4.60034,2470.474,2021-5-23T09:53:32Z
2021-05-23T07:55:24Z,42.805,6.029,13.2990,4.60041,2470.497,2021-5-23T09:56:35Z
2021-05-23T07:58:27Z,42.805,6.029,13.2992,4.60036,2470.474,2021-5-23T09:59:39Z
2021-05-23T08:01:30Z,42.805,6.029,13.2991,4.60016,2470.474,2021-5-23T10:02:42Z
2021-05-23T08:04:33Z,42.805,6.029,13.3000,4.60051,2470.46,2021-5-23T10:05:45Z
2021-05-23T08:07:36Z,42.805,6.029,13.2996,4.60032,2470.46,2021-5-23T10:08:48Z
2021-05-23T08:10:39Z,42.805,6.029,13.2998,4.60006,2470.474,2021-5-23T10:11:51Z
2021-05-23T08:13:43Z,42.805,6.029,13.2995,4.60045,2470.46,2021-5-23T10:14:54Z
2021-05-23T08:16:46Z,42.805,6.029,13.2994,4.60040,2470.46,2021-5-23T10:17:57Z
2021-05-23T08:19:49Z,42.805,6.029,13.3011,4.60069,2470.413,2021-5-23T10:21:00Z
2021-05-23T08:22:52Z,42.805,6.029,13.2991,4.60051,2470.437,2021-5-23T10:24:04Z
2021-05-23T08:25:55Z,42.805,6.029,13.2995,4.60046,2470.483,2021-5-23T10:27:07Z
2021-05-23T08:28:58Z,42.805,6.029,13.2993,4.60060,2470.437,2021-5-23T10:30:10Z
2021-05-23T08:32:01Z,42.805,6.029,13.2998,4.60063,2470.446,2021-5-23T10:33:13Z
2021-05-23T08:35:04Z,42.805,6.029,13.2994,4.60044,2470.437,2021-5-23T10:36:16Z
2021-05-23T08:38:08Z,42.805,6.029,13.2997,4.60039,2470.427,2021-5-23T10:39:19Z
2021-05-23T08:41:11Z,42.805,6.029,13.3005,4.60041,2470.427,2021-5-23T10:42:22Z
2021-05-23T08:44:14Z,42.805,6.029,13.3008,4.60062,2470.427,2021-5-23T10:45:26Z
2021-05-23T08:47:17Z,42.805,6.029,13.2993,4.60052,2470.45,2021-5-23T10:48:29Z
2021-05-23T08:50:20Z,42.805,6.029,13.2987,4.60035,2470.427,2021-5-23T10:51:32Z
2021-05-23T08:53:23Z,42.805,6.029,13.3005,4.60009,2470.427,2021-5-23T10:54:35Z
2021-05-23T08:56:26Z,42.805,6.029,13.2998,4.60076,2470.474,2021-5-23T10:57:38Z
2021-05-23T08:59:29Z,42.805,6.029,13.3017,4.60069,2470.45,2021-5-23T11:00:41Z
2021-05-23T09:02:33Z,42.805,6.029,13.3000,4.60033,2470.413,2021-5-23T11:03:44Z
2021-05-23T09:05:36Z,42.805,6.029,13.2993,4.60033,2470.39,2021-5-23T11:06:47Z
2021-05-23T09:08:39Z,42.805,6.029,13.3000,4.60062,2470.413,2021-5-23T11:09:51Z
2021-05-23T09:11:42Z,42.805,6.029,13.2997,4.60039,2470.413,2021-5-23T11:12:54Z
2021-05-23T09:14:45Z,42.805,6.029,13.3000,4.60036,2470.413,2021-5-23T11:15:57Z
2021-05-23T09:17:48Z,42.805,6.029,13.3008,4.60036,2470.39,2021-5-23T11:19:00Z
2021-05-23T09:20:51Z,42.805,6.029,13.3005,4.60039,2470.39,2021-5-23T11:22:03Z
2021-05-23T09:23:54Z,42.805,6.029,13.3000,4.60045,2470.413,2021-5-23T11:25:06Z
2021-05-23T09:26:58Z,42.805,6.029,13.3014,4.60031,2470.39,2021-5-23T11:28:09Z
2021-05-23T09:30:01Z,42.805,6.029,13.3004,4.60051,2470.404,2021-5-23T11:31:12Z
2021-05-23T09:33:04Z,42.805,6.029,13.2998,4.60037,2470.427,2021-5-23T11:34:16Z
2021-05-23T09:36:07Z,42.805,6.029,13.2992,4.60062,2470.45,2021-5-23T11:37:19Z
2021-05-23T09:39:10Z,42.805,6.029,13.2991,4.60049,2470.39,2021-5-23T11:40:22Z
2021-05-23T09:42:13Z,42.805,6.029,13.2996,4.60039,2470.38,2021-5-23T11:43:25Z
2021-05-23T09:45:16Z,42.805,6.029,13.3000,4.60066,2470.404,2021-5-23T11:46:28Z
2021-05-23T09:48:20Z,42.805,6.029,13.2999,4.60074,2470.38,2021-5-23T11:49:31Z
2021-05-23T09:51:23Z,42.805,6.029,13.2998,4.60065,2470.38,2021-5-23T11:52:34Z
2021-05-23T09:54:26Z,42.805,6.029,13.2993,4.60089,2470.39,2021-5-23T11:55:37Z
2021-05-23T09:57:29Z,42.805,6.029,13.3001,4.60046,2470.437,2021-5-23T11:58:41Z
2021-05-23T10:00:32Z,42.805,6.029,13.3004,4.60053,2470.366,2021-5-23T12:01:44Z
2021-05-23T10:03:35Z,42.805,6.029,13.2995,4.60057,2470.404,2021-5-23T12:04:47Z
2021-05-23T10:06:38Z,42.805,6.029,13.3000,4.60077,2470.353,2021-5-23T12:07:50Z
2021-05-23T10:09:41Z,42.805,6.029,13.2996,4.60089,2470.38,2021-5-23T12:10:53Z
2021-05-23T10:12:45Z,42.805,6.029,13.3001,4.60067,2470.427,2021-5-23T12:13:56Z
2021-05-23T10:15:48Z,42.805,6.029,13.3002,4.60068,2470.357,2021-5-23T12:16:59Z
2021-05-23T10:18:51Z,42.805,6.029,13.3011,4.60058,2470.404,2021-5-23T12:20:02Z
2021-05-23T10:21:54Z,42.805,6.029,13.3007,4.60082,2470.343,2021-5-23T12:23:06Z
2021-05-23T10:24:57Z,42.805,6.029,13.3004,4.60054,2470.366,2021-5-23T12:26:09Z
2021-05-23T10:28:00Z,42.805,6.029,13.3014,4.60064,2470.357,2021-5-23T12:29:12Z
2021-05-23T10:31:03Z,42.805,6.029,13.2999,4.60057,2470.39,2021-5-23T12:32:15Z
2021-05-23T10:34:06Z,42.805,6.029,13.3003,4.60072,2470.366,2021-5-23T12:35:18Z
2021-05-23T10:37:10Z,42.805,6.029,13.3011,4.60049,2470.343,2021-5-23T12:38:21Z
2021-05-23T10:40:13Z,42.805,6.029,13.3013,4.60064,2470.343,2021-5-23T12:41:24Z
2021-05-23T10:43:16Z,42.805,6.029,13.3014,4.60069,2470.32,2021-5-23T12:44:28Z
2021-05-23T10:46:19Z,42.805,6.029,13.3010,4.60082,2470.357,2021-5-23T12:47:31Z
2021-05-23T10:49:22Z,42.805,6.029,13.3008,4.60064,2470.38,2021-5-23T12:50:34Z
2021-05-23T10:52:25Z,42.805,6.029,13.3009,4.60077,2470.366,2021-5-23T12:53:37Z
2021-05-23T10:55:28Z,42.805,6.029,13.2999,4.60054,2470.357,2021-5-23T12:56:40Z
2021-05-23T10:58:32Z,42.805,6.029,13.3004,4.60054,2470.366,2021-5-23T12:59:43Z
2021-05-23T11:01:35Z,42.805,6.029,13.3013,4.60070,2470.343,2021-5-23T13:02:46Z
2021-05-23T11:04:38Z,42.805,6.029,13.3007,4.60074,2470.357,2021-5-23T13:05:49Z
2021-05-23T11:07:41Z,42.805,6.029,13.3011,4.60103,2470.343,2021-5-23T13:08:53Z
2021-05-23T11:10:44Z,42.805,6.029,13.3010,4.60092,2470.366,2021-5-23T13:11:56Z
2021-05-23T11:13:47Z,42.805,6.029,13.3000,4.60076,2470.357,2021-5-23T13:14:59Z
2021-05-23T11:16:50Z,42.805,6.029,13.3013,4.60072,2470.38,2021-5-23T13:18:02Z
2021-05-23T11:19:53Z,42.805,6.029,13.3014,4.60058,2470.343,2021-5-23T13:21:05Z
2021-05-23T11:22:56Z,42.805,6.029,13.3007,4.60052,2470.334,2021-5-23T13:24:08Z
2021-05-23T11:26:00Z,42.805,6.029,13.3004,4.60074,2470.343,2021-5-23T13:27:11Z
2021-05-23T11:29:03Z,42.805,6.029,13.3004,4.60072,2470.343,2021-5-23T13:30:14Z
2021-05-23T11:32:06Z,42.805,6.029,13.2998,4.60076,2470.32,2021-5-23T13:33:18Z
2021-05-23T11:35:09Z,42.805,6.029,13.3005,4.60107,2470.366,2021-5-23T13:36:21Z
2021-05-23T11:38:12Z,42.805,6.029,13.3006,4.60083,2470.343,2021-5-23T13:39:24Z
2021-05-23T11:41:15Z,42.805,6.029,13.3013,4.60059,2470.32,2021-5-23T13:42:27Z
2021-05-23T11:44:18Z,42.805,6.029,13.3002,4.60064,2470.38,2021-5-23T13:45:30Z
2021-05-23T11:47:22Z,42.805,6.029,13.3007,4.60062,2470.343,2021-5-23T13:48:33Z
2021-05-23T11:50:25Z,42.805,6.029,13.3008,4.60071,2470.357,2021-5-23T13:51:36Z
2021-05-23T11:53:28Z,42.805,6.029,13.3011,4.60079,2470.366,2021-5-23T13:54:39Z
2021-05-23T11:56:31Z,42.805,6.029,13.3002,4.60070,2470.343,2021-5-23T13:57:43Z
2021-05-23T11:59:34Z,42.805,6.029,13.3003,4.60098,2470.343,2021-5-23T14:00:46Z
2021-05-23T12:02:37Z,42.805,6.029,13.3009,4.60074,2470.357,2021-5-23T14:03:49Z
2021-05-23T12:05:40Z,42.805,6.029,13.3007,4.60074,2470.343,2021-5-23T14:06:52Z
2021-05-23T12:08:43Z,42.805,6.029,13.3004,4.60074,2470.32,2021-5-23T14:09:55Z
2021-05-23T12:11:47Z,42.805,6.029,13.3007,4.60058,2470.343,2021-5-23T14:12:58Z
2021-05-23T12:14:50Z,42.805,6.029,13.3001,4.60064,2470.32,2021-5-23T14:16:01Z
2021-05-23T12:17:53Z,42.805,6.029,13.3004,4.60036,2470.357,2021-5-23T14:19:04Z
2021-05-23T12:20:56Z,42.805,6.029,13.3018,4.60067,2470.357,2021-5-23T14:22:08Z
2021-05-23T12:23:59Z,42.805,6.029,13.3017,4.60082,2470.32,2021-5-23T14:25:11Z
2021-05-23T12:27:02Z,42.805,6.029,13.3011,4.60081,2470.357,2021-5-23T14:28:14Z
2021-05-23T12:30:05Z,42.805,6.029,13.3006,4.60062,2470.343,2021-5-23T14:31:17Z
2021-05-23T12:33:08Z,42.805,6.029,13.3014,4.60089,2470.343,2021-5-23T14:34:20Z
2021-05-23T12:36:12Z,42.805,6.029,13.3008,4.60090,2470.357,2021-5-23T14:37:23Z
2021-05-23T12:39:15Z,42.805,6.029,13.3011,4.60090,2470.357,2021-5-23T14:40:26Z
2021-05-23T12:42:18Z,42.805,6.029,13.3011,4.60083,2470.38,2021-5-23T14:43:29Z
2021-05-23T12:45:21Z,42.805,6.029,13.3021,4.60064,2470.357,2021-5-23T14:46:33Z
2021-05-23T12:48:24Z,42.805,6.029,13.3017,4.60054,2470.357,2021-5-23T14:49:36Z
2021-05-23T12:51:27Z,42.805,6.029,13.3008,4.60069,2470.357,2021-5-23T14:52:39Z
2021-05-23T12:54:30Z,42.805,6.029,13.3013,4.60059,2470.343,2021-5-23T14:55:42Z
2021-05-23T12:57:33Z,42.805,6.029,13.3018,4.60057,2470.38,2021-5-23T14:58:45Z
2021-05-23T13:00:37Z,42.805,6.029,13.3011,4.60060,2470.357,2021-5-23T15:01:48Z
2021-05-23T13:03:40Z,42.805,6.029,13.3005,4.60047,2470.357,2021-5-23T15:04:51Z
2021-05-23T13:06:43Z,42.805,6.029,13.3001,4.60084,2470.343,2021-5-23T15:07:55Z
2021-05-23T13:09:46Z,42.805,6.029,13.3000,4.60089,2470.366,2021-5-23T15:10:58Z
2021-05-23T13:12:49Z,42.805,6.029,13.3005,4.60066,2470.357,2021-5-23T15:14:01Z
2021-05-23T13:15:52Z,42.805,6.029,13.3000,4.60070,2470.366,2021-5-23T15:17:04Z
2021-05-23T13:18:55Z,42.805,6.029,13.3022,4.60094,2470.366,2021-5-23T15:20:07Z
2021-05-23T13:21:58Z,42.805,6.029,13.3014,4.60072,2470.404,2021-5-23T15:23:10Z
2021-05-23T13:25:02Z,42.805,6.029,13.3016,4.60074,2470.39,2021-5-23T15:26:13Z
2021-05-23T13:28:05Z,42.805,6.029,13.3009,4.60081,2470.366,2021-5-23T15:29:16Z
2021-05-23T13:31:08Z,42.805,6.029,13.3011,4.60087,2470.38,2021-5-23T15:32:20Z
2021-05-23T13:34:11Z,42.805,6.029,13.3015,4.60034,2470.404,2021-5-23T15:35:23Z
2021-05-23T13:37:14Z,42.805,6.029,13.3013,4.60039,2470.427,2021-5-23T15:38:26Z
2021-05-23T13:40:17Z,42.805,6.029,13.3015,4.60059,2470.39,2021-5-23T15:41:29Z
2021-05-23T13:43:20Z,42.805,6.029,13.3005,4.60067,2470.45,2021-5-23T15:44:32Z
2021-05-23T13:46:24Z,42.805,6.029,13.3006,4.60038,2470.38,2021-5-23T15:47:35Z
2021-05-23T13:49:27Z,42.805,6.029,13.3011,4.60062,2470.45,2021-5-23T15:50:38Z
2021-05-23T13:52:30Z,42.805,6.029,13.3000,4.60056,2470.399,2021-5-23T15:53:41Z
2021-05-23T13:55:33Z,42.805,6.029,13.3001,4.60066,2470.404,2021-5-23T15:56:45Z
2021-05-23T13:58:36Z,42.805,6.029,13.2994,4.60072,2470.38,2021-5-23T15:59:48Z
2021-05-23T14:01:39Z,42.805,6.029,13.3010,4.60033,2470.39,2021-5-23T16:02:51Z
2021-05-23T14:04:42Z,42.805,6.029,13.3009,4.60036,2470.427,2021-5-23T16:05:54Z
2021-05-23T14:07:45Z,42.805,6.029,13.3000,4.60088,2470.427,2021-5-23T16:08:57Z
2021-05-23T14:10:49Z,42.805,6.029,13.3034,4.60066,2470.437,2021-5-23T16:12:00Z
2021-05-23T14:13:52Z,42.805,6.029,13.3014,4.60059,2470.427,2021-5-23T16:15:03Z
2021-05-23T14:16:55Z,42.805,6.029,13.2999,4.60063,2470.404,2021-5-23T16:18:06Z
2021-05-23T14:19:58Z,42.805,6.029,13.3000,4.60068,2470.39,2021-5-23T16:21:10Z
2021-05-23T14:23:01Z,42.805,6.029,13.2998,4.60072,2470.404,2021-5-23T16:24:13Z
2021-05-23T14:26:04Z,42.805,6.029,13.2998,4.60067,2470.413,2021-5-23T16:27:16Z
2021-05-23T14:29:07Z,42.805,6.029,13.3011,4.60055,2470.404,2021-5-23T16:30:19Z
2021-05-23T14:32:10Z,42.805,6.029,13.3006,4.60090,2470.45,2021-5-23T16:33:22Z
2021-05-23T14:35:14Z,42.805,6.029,13.3003,4.60097,2470.437,2021-5-23T16:36:25Z
2021-05-23T14:38:17Z,42.805,6.029,13.3006,4.60082,2470.437,2021-5-23T16:39:28Z
2021-05-23T14:41:20Z,42.805,6.029,13.3006,4.60104,2470.437,2021-5-23T16:42:31Z
2021-05-23T14:44:23Z,42.805,6.029,13.3017,4.60127,2470.413,2021-5-23T16:45:35Z
2021-05-23T14:47:26Z,42.805,6.029,13.3007,4.60053,2470.45,2021-5-23T16:48:38Z
2021-05-23T14:50:29Z,42.805,6.029,13.3006,4.60084,2470.474,2021-5-23T16:51:41Z
2021-05-23T14:53:32Z,42.805,6.029,13.3007,4.60062,2470.423,2021-5-23T16:54:44Z
2021-05-23T14:56:35Z,42.805,6.029,13.3015,4.60053,2470.437,2021-5-23T16:57:47Z
2021-05-23T14:59:39Z,42.805,6.029,13.3008,4.60039,2470.427,2021-5-23T17:00:50Z
2021-05-23T15:02:42Z,42.805,6.029,13.3007,4.60072,2470.474,2021-5-23T17:03:53Z
2021-05-23T15:05:45Z,42.805,6.029,13.2998,4.60081,2470.45,2021-5-23T17:06:57Z
2021-05-23T15:08:48Z,42.805,6.029,13.3005,4.60072,2470.437,2021-5-23T17:10:00Z
2021-05-23T15:11:51Z,42.805,6.029,13.3023,4.60052,2470.45,2021-5-23T17:13:03Z